Time,TemperatureF,DewpointF,PressureIn,WindDirection,WindDirectionDegrees,WindSpeedMPH,WindSpeedGustMPH,Humidity,HourlyPrecipIn,Conditions,Clouds,dailyrainin,SolarRadiationWatts/m^2,SoftwareType,DateUTC
2013-09-09 00:02:00,48.0,37.0,-100.00,WNW,298,8.0,18.0,66,0.00,,,0.00,0.000000,,2013-09-09 06:02:00,
2013-09-09 00:42:00,47.0,38.0,-100.00,WNW,284,6.0,11.0,72,0.00,,,0.00,0.000000,,2013-09-09 06:42:00,
2013-09-09 00:52:00,47.0,38.0,-100.00,WNW,284,6.0,11.0,72,0.00,,,0.00,0.000000,,2013-09-09 06:52:00,
2013-09-09 01:01:00,47.0,38.0,-100.00,WNW,284,6.0,11.0,72,0.00,,,0.00,0.000000,,2013-09-09 07:01:00,
2013-09-09 01:43:00,47.0,38.0,-100.00,SSW,210,5.0,14.0,71,0.00,,,0.00,0.000000,,2013-09-09 07:43:00,
2013-09-09 01:52:00,47.0,38.0,-100.00,SSW,210,5.0,14.0,71,0.00,,,0.00,0.000000,,2013-09-09 07:52:00,
2013-09-09 02:02:00,47.0,38.0,-100.00,SSW,210,5.0,14.0,71,0.00,,,0.00,0.000000,,2013-09-09 08:02:00,
2013-09-09 02:43:00,47.0,38.0,-100.00,WSW,258,3.0,14.0,72,0.00,,,0.00,0.000000,,2013-09-09 08:43:00,
2013-09-09 02:52:00,47.0,38.0,-100.00,WSW,258,3.0,14.0,72,0.00,,,0.00,0.000000,,2013-09-09 08:52:00,
2013-09-09 03:01:00,47.0,38.0,-100.00,WSW,258,3.0,14.0,72,0.00,,,0.00,0.000000,,2013-09-09 09:01:00,
2013-09-09 03:43:00,46.0,38.0,-100.00,NNW,331,0.0,7.0,74,0.00,,,0.00,0.000000,,2013-09-09 09:43:00,
2013-09-09 03:53:00,46.0,38.0,-100.00,NNW,331,0.0,7.0,74,0.00,,,0.00,0.000000,,2013-09-09 09:53:00,
2013-09-09 04:03:00,46.0,38.0,-100.00,NNW,331,0.0,7.0,74,0.00,,,0.00,0.000000,,2013-09-09 10:03:00,
2013-09-09 04:42:00,46.0,38.0,-100.00,NW,316,4.0,6.0,74,0.00,,,0.00,0.000000,,2013-09-09 10:42:00,
2013-09-09 04:52:00,46.0,38.0,-100.00,NW,316,4.0,6.0,74,0.00,,,0.00,0.000000,,2013-09-09 10:52:00,
2013-09-09 05:02:00,46.0,38.0,-100.00,NW,316,4.0,6.0,74,0.00,,,0.00,0.000000,,2013-09-09 11:02:00,
2013-09-09 05:42:00,46.0,39.0,-100.00,South,177,4.0,6.0,75,0.00,,,0.00,0.000000,,2013-09-09 11:42:00,
2013-09-09 05:52:00,46.0,39.0,-100.00,South,177,4.0,6.0,75,0.00,,,0.00,0.000000,,2013-09-09 11:52:00,
2013-09-09 06:01:00,46.0,39.0,-100.00,South,177,4.0,6.0,75,0.00,,,0.00,0.000000,,2013-09-09 12:01:00,
2013-09-09 06:42:00,46.0,39.0,-100.00,SW,225,2.0,6.0,75,0.00,,,0.00,0.000000,,2013-09-09 12:42:00,
2013-09-09 06:52:00,46.0,39.0,-100.00,SW,225,2.0,6.0,75,0.00,,,0.00,0.000000,,2013-09-09 12:52:00,
2013-09-09 07:01:00,46.0,39.0,-100.00,SW,225,2.0,6.0,75,0.00,,,0.00,0.000000,,2013-09-09 13:01:00,
2013-09-09 07:42:00,45.0,38.0,-100.00,WSW,258,2.0,5.0,76,0.00,,,0.00,1.000000,,2013-09-09 13:42:00,
2013-09-09 07:52:00,45.0,38.0,-100.00,WSW,258,2.0,5.0,76,0.00,,,0.00,1.000000,,2013-09-09 13:52:00,
2013-09-09 08:02:00,45.0,38.0,-100.00,WSW,258,2.0,5.0,76,0.00,,,0.00,1.000000,,2013-09-09 14:02:00,
2013-09-09 08:42:00,46.0,39.0,-100.00,SW,226,4.0,6.0,77,0.00,,,0.00,12.000000,,2013-09-09 14:42:00,
2013-09-09 08:52:00,46.0,39.0,-100.00,SW,226,4.0,6.0,77,0.00,,,0.00,12.000000,,2013-09-09 14:52:00,
2013-09-09 09:02:00,46.0,39.0,-100.00,SW,226,4.0,6.0,77,0.00,,,0.00,12.000000,,2013-09-09 15:02:00,
2013-09-09 09:43:00,45.0,43.0,-100.00,NW,318,3.0,8.0,93,0.00,,,0.00,28.000000,,2013-09-09 15:43:00,
2013-09-09 09:53:00,45.0,43.0,-100.00,NW,318,3.0,8.0,93,0.00,,,0.00,28.000000,,2013-09-09 15:53:00,
2013-09-09 10:03:00,45.0,43.0,-100.00,NW,318,3.0,8.0,93,0.00,,,0.00,28.000000,,2013-09-09 16:03:00,
2013-09-09 10:44:00,46.0,45.0,-100.00,West,264,2.0,6.0,97,0.01,,,0.01,75.000000,,2013-09-09 16:44:00,
2013-09-09 10:54:00,46.0,45.0,-100.00,West,264,2.0,6.0,97,0.01,,,0.01,75.000000,,2013-09-09 16:54:00,
2013-09-09 11:03:00,46.0,45.0,-100.00,West,264,2.0,6.0,97,0.01,,,0.01,75.000000,,2013-09-09 17:03:00,
2013-09-09 11:43:00,49.0,45.0,-100.00,SW,216,4.0,5.0,87,0.00,,,0.01,147.000000,,2013-09-09 17:43:00,
2013-09-09 11:53:00,49.0,45.0,-100.00,SW,216,4.0,5.0,87,0.00,,,0.01,147.000000,,2013-09-09 17:53:00,
2013-09-09 12:02:00,49.0,45.0,-100.00,SW,216,4.0,5.0,87,0.00,,,0.01,147.000000,,2013-09-09 18:02:00,
2013-09-09 12:42:00,51.0,44.0,-100.00,ESE,112,4.0,6.0,78,0.00,,,0.01,267.000000,,2013-09-09 18:42:00,
2013-09-09 12:52:00,51.0,44.0,-100.00,ESE,112,4.0,6.0,78,0.00,,,0.01,267.000000,,2013-09-09 18:52:00,
2013-09-09 13:01:00,51.0,44.0,-100.00,ESE,112,4.0,6.0,78,0.00,,,0.01,267.000000,,2013-09-09 19:01:00,
2013-09-09 13:43:00,51.0,45.0,-100.00,South,180,7.0,9.0,79,0.00,,,0.01,294.000000,,2013-09-09 19:43:00,
2013-09-09 13:52:00,51.0,45.0,-100.00,South,180,7.0,9.0,79,0.00,,,0.01,294.000000,,2013-09-09 19:52:00,
2013-09-09 14:02:00,51.0,45.0,-100.00,South,180,7.0,9.0,79,0.00,,,0.01,294.000000,,2013-09-09 20:02:00,
2013-09-09 14:42:00,55.0,46.0,-100.00,SSW,210,6.0,11.0,71,0.00,,,0.01,360.000000,,2013-09-09 20:42:00,
2013-09-09 14:53:00,55.0,46.0,-100.00,SSW,210,6.0,11.0,71,0.00,,,0.01,360.000000,,2013-09-09 20:53:00,
2013-09-09 15:02:00,55.0,46.0,-100.00,SSW,210,6.0,11.0,71,0.00,,,0.01,360.000000,,2013-09-09 21:02:00,
2013-09-09 15:44:00,58.0,44.0,-100.00,SW,227,5.0,10.0,59,0.00,,,0.01,501.000000,,2013-09-09 21:44:00,
2013-09-09 15:54:00,58.0,44.0,-100.00,SW,227,5.0,10.0,59,0.00,,,0.01,501.000000,,2013-09-09 21:54:00,
2013-09-09 16:05:00,58.0,44.0,-100.00,SW,227,5.0,10.0,59,0.00,,,0.01,501.000000,,2013-09-09 22:05:00,
2013-09-09 16:43:00,66.0,44.0,-100.00,West,280,6.0,15.0,45,0.00,,,0.01,872.000000,,2013-09-09 22:43:00,
2013-09-09 16:54:00,66.0,44.0,-100.00,West,280,6.0,15.0,45,0.00,,,0.01,872.000000,,2013-09-09 22:54:00,
2013-09-09 17:03:00,66.0,44.0,-100.00,West,280,6.0,15.0,45,0.00,,,0.01,872.000000,,2013-09-09 23:03:00,
2013-09-09 17:42:00,60.0,40.0,-100.00,South,187,5.0,11.0,47,0.00,,,0.01,217.000000,,2013-09-09 23:42:00,
2013-09-09 17:52:00,60.0,40.0,-100.00,South,187,5.0,11.0,47,0.00,,,0.01,217.000000,,2013-09-09 23:52:00,
2013-09-09 18:02:00,60.0,40.0,-100.00,South,187,5.0,11.0,47,0.00,,,0.01,217.000000,,2013-09-10 00:02:00,
2013-09-09 18:42:00,61.0,41.0,-100.00,WSW,242,5.0,10.0,47,0.00,,,0.01,174.000000,,2013-09-10 00:42:00,
2013-09-09 18:52:00,61.0,41.0,-100.00,WSW,242,5.0,10.0,47,0.00,,,0.01,174.000000,,2013-09-10 00:52:00,
2013-09-09 19:01:00,61.0,41.0,-100.00,WSW,242,5.0,10.0,47,0.00,,,0.01,174.000000,,2013-09-10 01:01:00,
2013-09-09 19:42:00,63.0,41.0,-100.00,SSW,208,3.0,6.0,45,0.00,,,0.01,221.000000,,2013-09-10 01:42:00,
2013-09-09 19:52:00,63.0,41.0,-100.00,SSW,208,3.0,6.0,45,0.00,,,0.01,221.000000,,2013-09-10 01:52:00,
2013-09-09 20:02:00,63.0,41.0,-100.00,SSW,208,3.0,6.0,45,0.00,,,0.01,221.000000,,2013-09-10 02:02:00,
2013-09-09 20:42:00,58.0,41.0,-100.00,North,359,5.0,8.0,53,0.00,,,0.01,82.000000,,2013-09-10 02:42:00,
2013-09-09 20:52:00,58.0,41.0,-100.00,North,359,5.0,8.0,53,0.00,,,0.01,82.000000,,2013-09-10 02:52:00,
2013-09-09 21:02:00,58.0,41.0,-100.00,North,359,5.0,8.0,53,0.00,,,0.01,82.000000,,2013-09-10 03:02:00,
2013-09-09 21:44:00,56.0,40.0,-100.00,NNW,336,6.0,10.0,55,0.00,,,0.01,0.000000,,2013-09-10 03:44:00,
2013-09-09 21:54:00,56.0,40.0,-100.00,NNW,336,6.0,10.0,55,0.00,,,0.01,0.000000,,2013-09-10 03:54:00,
2013-09-09 22:04:00,56.0,40.0,-100.00,NNW,336,6.0,10.0,55,0.00,,,0.01,0.000000,,2013-09-10 04:04:00,
2013-09-09 22:43:00,54.0,40.0,-100.00,North,8,4.0,7.0,58,0.00,,,0.01,0.000000,,2013-09-10 04:43:00,
2013-09-09 22:53:00,54.0,40.0,-100.00,North,8,4.0,7.0,58,0.00,,,0.01,0.000000,,2013-09-10 04:53:00,
2013-09-09 23:03:00,54.0,40.0,-100.00,North,8,4.0,7.0,58,0.00,,,0.01,0.000000,,2013-09-10 05:03:00,
2013-09-09 23:43:00,53.0,39.0,-100.00,NNE,23,5.0,7.0,60,0.00,,,0.01,0.000000,,2013-09-10 05:43:00,
2013-09-09 23:53:00,53.0,39.0,-100.00,NNE,23,5.0,7.0,60,0.00,,,0.01,0.000000,,2013-09-10 05:53:00,